Other Public Products
Issued by NWS Grand Forks, ND

Home | Current Version | Previous Version | Graphics & Text | Print | Product List | Glossary On
Versions: 1 2 3 4 5 6 7 8 9 10 11 12 13 14 15 16 17 18 19 20 21 22 23 24 25 26 27 28 29 30 31 32 33 34 35 36 37 38 39 40 41 42 43 44 45 46 47 48 49 50
000
FPUS83 KFGF 031131
OPUFGF
PRAIRIE TO PINES WEATHER ROUNDUP
NATIONAL WEATHER SERVICE EASTERN NORTH DAKOTA/GRAND FORKS ND
500 AM CST TUE MAR 03 2015

 **SATELLITE DATA USED TO AUGMENT SKY COVER AT AUTOMATED STATIONS**
 *****  WEATHER ACROSS EASTERN NORTH DAKOTA  *****

CITY           SKY/WX    TMP DP  RH WIND       PRES   REMARKS
GRAND FORKS    CLOUDY    19  12  74 NW17G23   29.75F WCI   4
GRAND FORKS AF CLOUDY    16   9  73 N21G26    29.78R WCI  -2
GRAND CITY NWS   N/A     18 N/A N/A NW13        N/A  WCI   4
BUXTON         NOT AVBL
DEVILS LAKE    CLOUDY    10   3  72 NW23G29   29.82R WCI -10
FARGO          LGT SNOW  20  15  81 NW25G36   29.74R WCI   2
WAHPETON ARPT  CLOUDY    27  23  86 W6        29.70F WCI  20
$$

 *****  WEATHER ACROSS CENTRAL AND WESTERN NORTH DAKOTA  *****

CITY           SKY/WX    TMP DP  RH WIND       PRES   REMARKS
JAMESTOWN      FLURRIES  15   8  73 NW24G32   29.80R WCI  -4
BISMARCK       CLOUDY    12   0  58 NW22G36   29.94R WCI  -7
MINOT          FLURRIES   3  -5  69 W23G30    29.94R WCI -19
MINOT AFB      MOCLDY     3  -2  78 NW23G30   29.94R WCI -19
GARRISON         N/A      5  -2  72 NW24      29.94R WCI -17
WILLISTON      CLEAR      3  -5  69 W9        30.07R WCI -12
DICKINSON      CLOUDY     9  -5  53 NW26G36   29.93R WCI -13
HETTINGER      CLOUDY    11   1  64 N24G35    29.92R WCI  -9
$$

 *****  OTHER OBSERVATIONS NORTHEAST NORTH DAKOTA  *****

CITY           SKY/WX    TMP DP  RH WIND       PRES   REMARKS
WALHALLA       LGT SNOW  14  12  92 NW20G26   29.79S WCI  -3
LANGDON        NOT AVBL
CAVALIER       CLOUDY    16   9  73 NW20      29.78S WCI  -1
GRAFTON        NOT AVBL
CANDO          FAIR       9   1  72 NW20G29   29.84R WCI -11
FORT TOTTEN      N/A     11   4  74 NW12      29.95  WCI  -3
ROLLA          FAIR       3  -2  78 NW29G35   29.81R WCI -21
RUGBY          FAIR       5  -2  72 NW25G32   29.88R WCI -18
 ***** THE ABOVE OBSERVATIONS ARE NON NWS ARE NOT QUALITY
        CONTROLLED AND MAY MIS-REPORT RAIN FOR SNOW...
$$

 *****  OTHER OBSERVATIONS SOUTHEAST NORTH DAKOTA *****

CITY           SKY/WX    TMP DP  RH WIND       PRES   REMARKS
COOPERSTOWN    NOT AVBL
VALLEY CITY    FLURRIES  18  14  86 NW22      29.78R WCI   0
OAKES          LGT SNOW  18  16  93 NW28G37   29.75R WCI  -1
GWINNER        CLOUDY    23  19  86 NW24G31   29.74R WCI   7
SHEYENNE NWR     N/A     22  17  80 N14       29.95S WCI   9
BUFFALO        NOT AVBL
WYNDMERE         N/A     23  21  93 N17         N/A  WCI   9
 ***** THE ABOVE OBSERVATIONS ARE NON NWS ARE NOT QUALITY
       CONTROLLED AND MAY MIS-REPORT RAIN FOR SNOW...
$$

  *****  WEATHER ACROSS NORTHERN MINNESOTA  *****

CITY           SKY/WX    TMP DP  RH WIND       PRES   REMARKS
FLAG ISLAND    CLOUDY    23  18  80 W9        29.60F WCI  13
WARROAD        CLOUDY    21  18  86 W8        29.65S WCI  12
ROSEAU         FLURRIES  21  16  79 W10       29.67R WCI  10
HALLOCK        CLOUDY    16  10  79 NW24      29.75R WCI  -3
THF RVR FALLS  CLOUDY    19  16  86 NW20      29.70S WCI   4
HALSTAD          N/A     19  14  80 NW21        N/A  WCI   3
FOSSTON        LGT SNOW  23  21  93 W16       29.67F WCI  10
BAUDETTE       CLOUDY    25  19  78 W12       29.62F WCI  14
WASKISH        CLOUDY    27  19  74 SW6       29.65F WCI  20
CROOKSTON      FLURRIES  19  16  86 N15       29.75S WCI   5
$$
  *****  WEATHER ACROSS CENTRAL AND WEST MINNESOTA  *****

CITY           SKY/WX    TMP DP  RH WIND       PRES   REMARKS
BEMIDJI        FLURRIES  24  20  85 SW6       29.64F WCI  16
PARK RAPIDS    LGT SNOW  23  20  88 S8        29.67F FOG     WCI  14
WADENA         LGT SNOW  21  19  93 S5        29.67F WCI  15
DETROIT LAKES  LGT SNOW  27  25  93 SW5       29.67F WCI  21
MOORHEAD       RAIN      23  19  86 NW23      29.72S WCI   7
FERGUS FALLS   LGT SNOW  23  21  93 S8        29.72F VSB 3/4 WCI  14
ELBOW LAKE     LGT SNOW  22  21  95 S14       29.68F WCI   9
MORRIS MN      SNOW      23  21  93 S10       29.69S VSB 1/4 WCI  12
STAPLES        LGT SNOW  19  19 100 S10       29.68F VSB 1   WCI   8
WHEATON        LGT SNOW  21  21 100 S7        29.72R VSB 1   WCI  13
$$
  *****  WEATHER ELSEWHERE ACROSS MINNESOTA  *****

CITY           SKY/WX    TMP DP  RH WIND       PRES   REMARKS
DULUTH         LGT SNOW  20  16  84 SW8       29.75F VSB 1   WCI  10
INTRNTL FALLS  CLOUDY    24  15  68 SW8       29.65F WCI  15
ELY            LGT SNOW  19  16  86 SW10      29.70F WCI   8
CLOQUET        LGT SNOW  19  18  93 S7        29.75F WCI  10
BRAINERD       LGT SNOW  20  17  88 S13       29.73F VSB 3/4 WCI   7
HIBBING        LGT SNOW  19  15  84 S5        29.69F VSB 1   WCI  12
ALEXANDRIA     LGT SNOW  21  19  92 S10       29.68F VSB 3/4 WCI  10
SAINT CLOUD    CLOUDY    21  14  74 SE8       29.76F WCI  11
MINNEAPOLIS    CLOUDY    22  12  65 SE8       29.80F WCI  12
$$

  *****  WEATHER ACROSS SOUTH DAKOTA  *****

CITY           SKY/WX    TMP DP  RH WIND       PRES   REMARKS
SIOUX FALLS    CLOUDY    25  19  78 S7        29.66F WCI  17
BROOKINGS      NOT AVBL
WATERTOWN      LGT SNOW  24  21  88 S7        29.65S VSB 3/4 WCI  16
HURON          SNOW      25  24  96 SW3       29.68R VSB 1/2
SISSETON         N/A     27  26  96 N6        29.69R WCI  20
ABERDEEN       LGT SNOW  20  15  81 N30G37    29.75R VSB 3/4 WCI   1
MITCHELL       LGT SNOW  27  23  85 SW3       29.68R VSB 3/4
PIERRE         LGT SNOW  18  14  84 N29G41    29.78R VSB 1   WCI  -1
MOBRIDGE       CLOUDY    17   7  64 N30G44    29.82R WCI  -3
RAPID CITY     LGT SNOW  16  12  84 N33G41    29.88R FOG     WCI  -5
$$

  *****  SOME WEATHER IN NEARBY STATES *****

CITY           SKY/WX    TMP DP  RH WIND       PRES   REMARKS
GLASGOW MT     PTCLDY     7  -6  55 NW17G30   30.14S WCI -12
GREAT FALLS MT CLOUDY     2  -2  83 NE5       30.20S WCI  -8
CHEYENNE WY    LGT SNOW  22  17  81 N24G40    29.66R WCI   5
SCOTTSBLUFF NE LGT SNOW  27  22  81 N20       29.76R WCI  13
OMAHA NE       FRZ DRZL  31  28  89 S14       29.67F WCI  21
DES MOINES IA  FRZ DRZL  30  25  81 S13       29.75F WCI  20
DAVENPORT IA   FRZ RAIN  29  26  89 S18G28    29.86F FOG     WCI  16
CHICAGO IL     LGT SNOW  24  22  91 SE12      30.00F FOG     WCI  13
EAU CLAIRE WI  CLOUDY    22  13  68 SE6       29.84F WCI  14
LA CROSSE WI   LGT SNOW  25  17  72 SE8       29.86F WCI  16
$$

  *****  SOME NATIONAL WEATHER *****

CITY           SKY/WX    TMP DP  RH WIND       PRES   REMARKS
LA GUARDIA NY  PTCLDY    24   9  52 NW6       30.41S WCI  17
RALEIGH NC     CLOUDY    39  21  48 E12       30.38R
ATLANTA GA     DRIZZLE   53  47  79 E3        30.21R
NEW ORLEANS LA FOG       66  64  93 S7        30.12S VSB 1/4
OKLAHOMA CITY  CLOUDY    39  36  89 S24G31    29.89F FOG
ALBUQUERQUE NM CLOUDY    42  29  59 SW8       29.93S
SALT LAKE CITY CLOUDY    35  32  88 CALM      29.79R
LOS ANGELES CA PTCLDY    50  44  80 NE8       29.94F
BOISE ID       CLOUDY    33  23  66 NW16      29.90R WCI  23
SEATTLE WA     CLEAR     36  31  82 E5        30.19R
$$

*** WEATHER ACROSS MANITOBA...SASKATCHEWAN AND ONTARIO ***
                ***ONTARIO***

CITY           SKY/WX    TMP DP  RH WIND       PRES   REMARKS
GERALDTON      CLOUDY    12   9  85 S5        29.73F WCI   4
THUNDER BAY    CLOUDY    19  10  68 SW3       29.78F
SIOUX LOOKOUT  FLURRIES  21  10  63 SW10      29.58F WCI  10
TORONTO        MOCLDY    10   5  79 CALM      30.31F
BIG TROUT LK   LGT SNOW  12  10  92 S7        29.48F WCI   2
PICKLE LAKE    LGT SNOW  16  10  79 S8        29.53  VSB 1   WCI   5
DRYDEN         FLURRIES  21  14  73 SW14      29.56F WCI   8
KENORA         FLURRIES  21  18  86 SW8       29.57F WCI  12
$$
                *** MANITOBA***

CITY           SKY/WX    TMP DP  RH WIND       PRES   REMARKS
BRANDON        CLEAR      1  -6  71 NW16G22   29.86R WCI -18
DAUPHIN        FLURRIES   5  -4  66 NW16G25   29.87R WCI -14
ISLAND LAKE    LGT SNOW   9   3  78 NW17G31   29.49R DRFTSNOWWCI -10
PILOT MOUND      N/A      5   1  85 NW24G31     N/A  WCI -17
THE PAS        MOCLDY    -4 -11  71 NW18G25   29.89R WCI -26
THOMPSON       FLURRIES  -8 -17  65 NW15G25   29.71  WCI -29
WINNIPEG       PTCLDY     9   3  78 NW24G32   29.77R WCI -12
LYNN LAKE      LGT SNOW -15 -24  64 NW14G25   29.83S WCI -38
CHURCHILL      MOCLDY    -8 -13  77 NE18      29.85R WCI -31
GILLAM         SNOW      -2  -8  78 N14G21    29.58R VSB 1/2 WCI -21
$$
                ***SASKATCHEWAN***

CITY           SKY/WX    TMP DP  RH WIND       PRES   REMARKS
ESTEVAN        PTCLDY    -2  -8  78 NW17      29.98R WCI -24
KINDERSLEY     PTCLDY    -4 -11  71 NW12      30.17F WCI -22
LLOYDMINSTER   PTCLDY    -6 -13  71 W12       30.16S WCI -24
PRINCE ALBERT  FLURRIES  -9 -17  70 NW12      30.07  WCI -29
REGINA         PTCLDY    -4  -9  77 NW18      30.04S WCI -26


USA.gov is the U.S. government's official web portal to all federal, state and local government web resources and services.